User: anonymous   Login
Location: Lafig�re
(44.4503°N, 4.0357°E)
Time: 03:21:00
(UTC+00:00)
Language:

MOS 1 - Orbit

View from above orbital plane
View from above orbital plane
View from above satellite
View from above satellite

Ground track
Ground track

The orbit data is extracted from the following two-line orbital elements,

1 17527U 87018A   20329.36138250 -.00000022  00000-0  15021-4 0  9998
2 17527  99.1366  12.6406 0009244  71.7469 299.4772 14.02566213725543
Epoch (UTC): 24 November 2020 08:40:23
Eccentricity: 0.0009244
inclination: 99.1366°
perigee height: 878 km
apogee height: 891 km
right ascension of ascending node: 12.6406°
argument of perigee: 71.7469°
revolutions per day: 14.02566213
mean anomaly at epoch: 299.4772°
orbit number at epoch: 72554

The dashed part of the orbit path shows where the satellite is in the earth's shadow,  

DLR